| time (UTC) | temp C | wind direction | speed KPH | gust KPH | rain 1hr cm | rain 24hr cm | rain mn cm | humidity % | barometer mb |
| 20260504234513 | 26 | 235 | 9.7 | 16.1 | 0.00 | 0.03 | 0.03 | 45 | 1001.1 |
| 20260504233058 | 26 | 249 | 6.4 | 17.7 | 0.00 | 0.03 | 0.03 | 44 | 1001.1 |
| 20260504231604 | 26 | 266 | 14.5 | 20.9 | 0.00 | 0.03 | 0.03 | 42 | 1001.3 |
| 20260504230054 | 26 | 263 | 12.9 | 37.0 | 0.00 | 0.03 | 0.03 | 41 | 1001.4 |
| 20260504224604 | 27 | 215 | 11.3 | 29.0 | 0.00 | 0.03 | 0.03 | 42 | 1001.2 |
| 20260504223053 | 27 | 219 | 11.3 | 19.3 | 0.00 | 0.03 | 0.03 | 42 | 1001.5 |
| 20260504221602 | 27 | 226 | 11.3 | 22.5 | 0.00 | 0.03 | 0.03 | 43 | 1001.5 |
| 20260504220054 | 27 | 233 | 9.7 | 29.0 | 0.00 | 0.03 | 0.03 | 43 | 1001.6 |
| 20260504214553 | 27 | 216 | 14.5 | 25.7 | 0.00 | 0.03 | 0.03 | 41 | 1001.5 |
| 20260504213032 | 27 | 257 | 14.5 | 30.6 | 0.00 | 0.03 | 0.03 | 43 | 1001.5 |
| 20260504211531 | 27 | 207 | 17.7 | 35.4 | 0.00 | 0.03 | 0.03 | 42 | 1001.5 |
| 20260504210015 | 27 | 279 | 17.7 | 35.4 | 0.00 | 0.03 | 0.03 | 43 | 1001.5 |
| 20260504204517 | 26 | 230 | 11.3 | 20.9 | 0.00 | 0.03 | 0.03 | 46 | 1001.6 |
| 20260504203050 | 26 | 231 | 9.7 | 19.3 | 0.00 | 0.03 | 0.03 | 47 | 1001.6 |
| 20260504201546 | 26 | 219 | 12.9 | 22.5 | 0.00 | 0.03 | 0.03 | 48 | 1002.2 |
| 20260504200035 | 25 | 222 | 11.3 | 20.9 | 0.00 | 0.03 | 0.03 | 52 | 1002.4 |
| 20260504194525 | 23 | 233 | 4.8 | 11.3 | 0.03 | 0.03 | 0.03 | 60 | 1002.4 |
| 20260504193024 | 22 | 216 | 9.7 | 24.1 | 0.03 | 0.03 | 0.03 | 61 | 1002.7 |
| 20260504191520 | 21 | 220 | 4.8 | 20.9 | 0.03 | 0.03 | 0.03 | 64 | 1002.7 |
| 20260504190018 | 22 | 225 | 6.4 | 16.1 | 0.03 | 0.03 | 0.03 | 59 | 1003.4 |
| 20260504184518 | 22 | 223 | 6.4 | 16.1 | 0.00 | 0.00 | 0.00 | 56 | 1003.5 |
| 20260504183016 | 22 | 256 | 6.4 | 0.0 | 0.00 | 0.00 | 0.00 | 56 | 1003.7 |
| 20260504181514 | 22 | 261 | 1.6 | 6.4 | 0.00 | 0.00 | 0.00 | 59 | 1003.9 |
| 20260504180056 | 21 | 264 | 0.0 | 1.6 | 0.00 | 0.00 | 0.00 | 64 | 1003.9 |
| 20260504174555 | 21 | 246 | 3.2 | 8.0 | 0.00 | 0.00 | 0.00 | 59 | 1004.0 |
| 20260504173036 | 22 | 238 | 6.4 | 17.7 | 0.00 | 0.00 | 0.00 | 57 | 1004.2 |
| 20260504171542 | 22 | 51 | 0.0 | 6.4 | 0.00 | 0.00 | 0.00 | 58 | 1004.3 |
| 20260504081530 | 17 | 270 | 0.0 | 9.7 | 0.00 | 0.00 | 0.00 | 61 | 1006.8 |
| 20260504044540 | 17 | 239 | 6.4 | 12.9 | 0.00 | 0.00 | 0.00 | 59 | 1008.0 |
| 20260504043033 | 18 | 235 | 1.6 | 9.7 | 0.00 | 0.00 | 0.00 | 57 | 1008.2 |
| 20260504041514 | 18 | 230 | 1.6 | 11.3 | 0.00 | 0.00 | 0.00 | 57 | 1008.4 |
| 20260504040019 | 18 | 231 | 4.8 | 8.0 | 0.00 | 0.00 | 0.00 | 56 | 1008.5 |
| 20260504034613 | 18 | 239 | 1.6 | 9.7 | 0.00 | 0.00 | 0.00 | 55 | 1008.6 |
| 20260504033055 | 19 | 225 | 1.6 | 9.7 | 0.00 | 0.00 | 0.00 | 54 | 1008.6 |
| 20260504031538 | 20 | 237 | 3.2 | 16.1 | 0.00 | 0.00 | 0.00 | 53 | 1009.2 |
| 20260504030042 | 19 | 261 | 6.4 | 11.3 | 0.00 | 0.00 | 0.00 | 54 | 1009.2 |
| 20260504024520 | 19 | 257 | 1.6 | 6.4 | 0.00 | 0.00 | 0.00 | 55 | 1008.8 |
| 20260504023018 | 19 | 243 | 1.6 | 6.4 | 0.00 | 0.00 | 0.00 | 54 | 1008.7 |
| 20260504021507 | 20 | 237 | 1.6 | 4.8 | 0.00 | 0.00 | 0.00 | 53 | 1008.6 |
| 20260504020012 | 20 | 258 | 1.6 | 3.2 | 0.00 | 0.00 | 0.00 | 52 | 1008.5 |
| 20260504014507 | 20 | 230 | 4.8 | 8.0 | 0.00 | 0.00 | 0.00 | 51 | 1008.4 |
| 20260504013004 | 20 | 241 | 1.6 | 6.4 | 0.00 | 0.00 | 0.00 | 50 | 1008.3 |
| 20260504011503 | 21 | 241 | 1.6 | 6.4 | 0.00 | 0.00 | 0.00 | 48 | 1008.4 |
| 20260504010002 | 21 | 234 | 3.2 | 8.0 | 0.00 | 0.00 | 0.00 | 47 | 1008.2 |
| 20260504004502 | 22 | 233 | 3.2 | 8.0 | 0.00 | 0.00 | 0.00 | 46 | 1008.3 |
| 20260504003001 | 22 | 235 | 1.6 | 8.0 | 0.00 | 0.00 | 0.00 | 44 | 1008.2 |
| 20260504001543 | 23 | 227 | 1.6 | 8.0 | 0.00 | 0.00 | 0.00 | 43 | 1008.2 |
| 20260504000046 | 23 | 259 | 6.4 | 11.3 | 0.00 | 0.00 | 0.00 | 41 | 1008.2 |